• In Netherlands
  • List of Countries
  • For 7 days
  • Water Temperature
  • Satellite Maps
  • Weather Map
  • Weather Widgets
  • user-avatar
    Login

    Hourly Weather Sankt Polten

    Today, 25 June, Sunday

    Time Temperature Precipitation Wind Pressure Humidity
    00:00 +20°C° 0.1 mm 2 mps 735 mmHg 93%
    01:00 +19°C° 0 mm 2 mps 735 mmHg 93%
    02:00 +20°C° 0.1 mm 1 mps 735 mmHg 94%
    03:00 +19°C° 0.1 mm 1 mps 734 mmHg 94%
    04:00 +18°C° 0.1 mm 1 mps 734 mmHg 95%
    05:00 +20°C° 0.1 mm 1 mps 734 mmHg 90%
    06:00 +22°C° 0.1 mm 1 mps 735 mmHg 85%
    07:00 +25°C° 0 mm 1 mps 735 mmHg 79%
    08:00 +26°C° 0.5 mm 1 mps 735 mmHg 75%
    09:00 +26°C° 0.5 mm 1 mps 735 mmHg 72%
    10:00 +27°C° 0.5 mm 2 mps 735 mmHg 68%
    11:00 +27°C° 0.9 mm 2 mps 735 mmHg 72%
    12:00 +26°C° 0.9 mm 2 mps 734 mmHg 75%
    13:00 +25°C° 0.9 mm 3 mps 734 mmHg 78%
    14:00 +24°C° 1.6 mm 3 mps 734 mmHg 83%
    15:00 +21°C° 1.6 mm 3 mps 734 mmHg 88%
    16:00 +20°C° 1.6 mm 4 mps 734 mmHg 93%
    17:00 +19°C° 2.9 mm 3 mps 734 mmHg 94%
    18:00 +18°C° 2.9 mm 3 mps 734 mmHg 95%
    19:00 +18°C° 2.9 mm 3 mps 734 mmHg 96%
    20:00 +17°C° 0.5 mm 3 mps 734 mmHg 95%
    21:00 +17°C° 0.5 mm 3 mps 735 mmHg 95%
    22:00 +17°C° 0.5 mm 2 mps 735 mmHg 94%
    23:00 +17°C° 0 mm 3 mps 735 mmHg 94%

    Tomorrow, 26 June, Monday

    Time Temperature Precipitation Wind Pressure Humidity
    00:00 +16°C° 0 mm 3 mps 735 mmHg 94%
    01:00 +16°C° 0 mm 3 mps 734 mmHg 94%
    02:00 +16°C° 0 mm 3 mps 735 mmHg 94%
    03:00 +16°C° 0 mm 3 mps 735 mmHg 94%
    04:00 +16°C° 0 mm 2 mps 735 mmHg 94%
    05:00 +17°C° 0 mm 3 mps 735 mmHg 91%
    06:00 +18°C° 0 mm 3 mps 735 mmHg 88%
    07:00 +20°C° 0 mm 3 mps 735 mmHg 85%
    08:00 +21°C° 0 mm 3 mps 735 mmHg 78%
    09:00 +23°C° 0 mm 4 mps 735 mmHg 71%
    10:00 +25°C° 0 mm 4 mps 735 mmHg 64%
    11:00 +26°C° 0 mm 4 mps 735 mmHg 61%
    12:00 +27°C° 0 mm 4 mps 735 mmHg 58%
    13:00 +28°C° 0 mm 3 mps 734 mmHg 55%
    14:00 +28°C° 0 mm 3 mps 734 mmHg 55%
    15:00 +28°C° 0 mm 3 mps 734 mmHg 56%
    16:00 +28°C° 0 mm 2 mps 734 mmHg 56%
    17:00 +27°C° 0 mm 2 mps 734 mmHg 65%
    18:00 +26°C° 0 mm 1 mps 734 mmHg 74%
    19:00 +24°C° 0 mm 1 mps 734 mmHg 83%
    20:00 +22°C° 0 mm 1 mps 734 mmHg 86%
    21:00 +20°C° 0 mm 1 mps 734 mmHg 89%
    22:00 +18°C° 0 mm 1 mps 734 mmHg 93%
    23:00 +18°C° 0 mm 1 mps 734 mmHg 93%

    Day after tomorrow, 27 June, Tuesday

    Time Temperature Precipitation Wind Pressure Humidity
    00:00 +16°C° 0 mm 1 mps 734 mmHg 94%
    01:00 +16°C° 0 mm 1 mps 733 mmHg 94%
    02:00 +16°C° 0 mm 1 mps 733 mmHg 94%
    03:00 +16°C° 0 mm 1 mps 733 mmHg 94%
    04:00 +16°C° 0 mm 1 mps 733 mmHg 95%
    05:00 +19°C° 0 mm 1 mps 733 mmHg 90%
    06:00 +20°C° 0 mm 2 mps 733 mmHg 85%
    07:00 +23°C° 0 mm 2 mps 733 mmHg 80%
    08:00 +24°C° 0 mm 2 mps 733 mmHg 73%
    09:00 +26°C° 0 mm 3 mps 733 mmHg 66%
    10:00 +28°C° 0 mm 3 mps 733 mmHg 59%
    11:00 +29°C° 0.2 mm 3 mps 732 mmHg 57%
    12:00 +30°C° 0.2 mm 3 mps 732 mmHg 54%
    13:00 +31°C° 0.2 mm 3 mps 732 mmHg 52%
    14:00 +30°C° 1 mm 3 mps 731 mmHg 55%
    15:00 +30°C° 1 mm 3 mps 731 mmHg 59%
    16:00 +29°C° 1 mm 2 mps 730 mmHg 62%
    17:00 +28°C° 0.3 mm 2 mps 730 mmHg 69%
    18:00 +27°C° 0.3 mm 2 mps 730 mmHg 75%
    19:00 +26°C° 0.3 mm 1 mps 730 mmHg 82%
    20:00 +24°C° 0.2 mm 1 mps 730 mmHg 84%
    21:00 +23°C° 0.2 mm 1 mps 729 mmHg 87%
    22:00 +20°C° 0.2 mm 2 mps 729 mmHg 89%
    23:00 +20°C° 0.1 mm 1 mps 729 mmHg 90%

    28 June, Wednesday

    Time Temperature Precipitation Wind Pressure Humidity
    00:00 +20°C° 0.1 mm 1 mps 729 mmHg 91%
    01:00 +19°C° 0.1 mm 1 mps 729 mmHg 92%
    02:00 +19°C° 0 mm 1 mps 729 mmHg 92%
    03:00 +19°C° 0 mm 1 mps 728 mmHg 93%
    04:00 +18°C° 0 mm 1 mps 728 mmHg 93%
    05:00 +20°C° 0 mm 1 mps 728 mmHg 88%
    06:00 +22°C° 0 mm 1 mps 728 mmHg 82%
    07:00 +24°C° 0 mm 1 mps 728 mmHg 77%
    08:00 +26°C° 0 mm 2 mps 728 mmHg 69%
    09:00 +28°C° 0 mm 2 mps 727 mmHg 62%
    10:00 +30°C° 0 mm 2 mps 727 mmHg 54%
    11:00 +31°C° 0 mm 3 mps 727 mmHg 50%
    12:00 +33°C° 0 mm 3 mps 726 mmHg 47%
    13:00 +34°C° 0 mm 3 mps 726 mmHg 43%
    14:00 +34°C° 0 mm 3 mps 725 mmHg 41%
    15:00 +35°C° 0 mm 3 mps 725 mmHg 40%
    16:00 +35°C° 0 mm 3 mps 724 mmHg 38%
    17:00 +33°C° 0.1 mm 3 mps 724 mmHg 46%
    18:00 +30°C° 0.1 mm 3 mps 724 mmHg 54%
    19:00 +28°C° 0.1 mm 3 mps 724 mmHg 62%
    20:00 +26°C° 0.1 mm 3 mps 724 mmHg 65%
    21:00 +25°C° 0.1 mm 2 mps 724 mmHg 67%
    22:00 +24°C° 0.1 mm 2 mps 724 mmHg 69%
    23:00 +23°C° 0 mm 2 mps 723 mmHg 72%

    29 June, Thursday

    Time Temperature Precipitation Wind Pressure Humidity
    00:00 +21°C° 0 mm 3 mps 723 mmHg 74%
    01:00 +21°C° 0 mm 3 mps 723 mmHg 76%
    02:00 +21°C° 0 mm 3 mps 723 mmHg 77%
    03:00 +20°C° 0 mm 3 mps 723 mmHg 78%
    04:00 +20°C° 0 mm 3 mps 722 mmHg 78%
    05:00 +21°C° 0 mm 3 mps 723 mmHg 78%
    06:00 +21°C° 0 mm 4 mps 723 mmHg 77%
    07:00 +22°C° 0 mm 4 mps 723 mmHg 76%
    08:00 +22°C° 0.2 mm 5 mps 724 mmHg 73%
    09:00 +23°C° 0.2 mm 5 mps 724 mmHg 70%
    10:00 +23°C° 0.2 mm 5 mps 724 mmHg 68%
    11:00 +23°C° 0.6 mm 5 mps 725 mmHg 69%
    12:00 +23°C° 0.6 mm 5 mps 725 mmHg 70%
    13:00 +22°C° 0.6 mm 5 mps 725 mmHg 71%
    14:00 +23°C° 0.3 mm 4 mps 726 mmHg 70%
    15:00 +23°C° 0.3 mm 4 mps 726 mmHg 68%
    16:00 +23°C° 0.3 mm 4 mps 726 mmHg 66%
    17:00 +21°C° 0.2 mm 3 mps 726 mmHg 72%
    18:00 +20°C° 0.2 mm 3 mps 727 mmHg 77%
    19:00 +19°C° 0.2 mm 3 mps 727 mmHg 83%
    20:00 +18°C° 0 mm 3 mps 728 mmHg 85%
    21:00 +17°C° 0 mm 3 mps 728 mmHg 88%
    22:00 +16°C° 0 mm 3 mps 729 mmHg 90%
    23:00 +14°C° 0 mm 3 mps 729 mmHg 90%

    30 June, Friday

    Time Temperature Precipitation Wind Pressure Humidity
    00:00 +15°C° 0 mm 2 mps 730 mmHg 90%
    01:00 +14°C° 0 mm 2 mps 730 mmHg 89%
    02:00 +13°C° 0 mm 2 mps 730 mmHg 90%
    03:00 +13°C° 0 mm 2 mps 730 mmHg 91%
    04:00 +12°C° 0 mm 1 mps 731 mmHg 92%
    05:00 +14°C° 0 mm 1 mps 731 mmHg 85%
    06:00 +16°C° 0 mm 1 mps 731 mmHg 79%
    07:00 +19°C° 0 mm 1 mps 732 mmHg 72%
    08:00 +20°C° 0 mm 1 mps 732 mmHg 67%
    09:00 +22°C° 0 mm 1 mps 732 mmHg 62%
    10:00 +23°C° 0 mm 1 mps 732 mmHg 57%
    11:00 +24°C° 0.3 mm 1 mps 732 mmHg 58%
    12:00 +24°C° 0.3 mm 1 mps 732 mmHg 59%
    13:00 +25°C° 0.3 mm 2 mps 732 mmHg 60%
    14:00 +25°C° 0.5 mm 2 mps 731 mmHg 58%
    15:00 +26°C° 0.5 mm 2 mps 731 mmHg 56%
    16:00 +26°C° 0.5 mm 2 mps 731 mmHg 54%
    17:00 +24°C° 0.9 mm 2 mps 731 mmHg 62%
    18:00 +23°C° 0.9 mm 1 mps 730 mmHg 70%
    19:00 +22°C° 0.9 mm 1 mps 730 mmHg 79%
    20:00 +20°C° 0.5 mm 1 mps 731 mmHg 82%
    21:00 +19°C° 0.5 mm 1 mps 731 mmHg 85%
    22:00 +16°C° 0.5 mm 1 mps 731 mmHg 88%
    23:00 +16°C° 0.4 mm 1 mps 731 mmHg 89%
    Show more